Location: Newark
(51.3318°N, 0.0053°E)
Time: 04:17:28
(UTC+00:00)

Envisat - Pass Details

Date: 29 January 2022
Orbit: 764 x 765 km, 98.2° (Epoch: 25 May)

Event Time Altitude Azimuth Distance (km) Brightness Sun altitude
Rises 05:43:14 0° 10° (N) 3,245 6.3 -18.5°
Reaches altitude 10° 05:45:37 10° 5° (N) 2,314 5.5 -18.1°
Maximum altitude 05:50:29 48° 293° (WNW) 994 3.2 -17.4°
Drops below altitude 10° 05:55:21 10° 219° (SW) 2,300 5.2 -16.6°
Sets 05:57:42 0° 214° (SW) 3,222 6.0 -16.3°
